Malahat, British Columbia

1:59 AM PDT on June 28, 2017 (GMT -0700)
Malahat

Weather History for CWKH - October, 2012

Change the Weather History Date:

Wednesday, October 31, 2012

  Actual Average Record
Temperature  
Mean Temperature 50 °F -  
Max Temperature 51 °F - - ()
Min Temperature 48 °F - - ()
Degree Days  
Heating Degree Days 16    
Moisture  
Dew Point 49 °F    
Average Humidity 97    
Maximum Humidity 98    
Minimum Humidity 93    
Precipitation  
Precipitation 0.00 in - - ()
Sea Level Pressure  
Sea Level Pressure 29.62 in    
Wind  
Wind Speed - ()    
Max Wind Speed -    
Max Gust Speed -    
T = Trace of Precipitation, MM = Missing Value Source: Averaged Metar Reports

Daily Weather History Graph

Daily Weather History Graph

Search for Another Location

Airport or City:

Trip Planner

Search our weather history database for the weather conditions in past years. The results will help you decide how hot, cold, wet, or windy it might be!

Date:

Astronomy

Oct. 31, 2012 Rise Set
Actual Time 7:59 AM PDT 5:55 PM PDT
Civil Twilight 7:27 AM PDT 6:27 PM PDT
Nautical Twilight 6:49 AM PDT 7:05 PM PDT
Astronomical Twilight 6:13 AM PDT 7:41 PM PDT
Moon 7:00 PM PDT (10/31) 9:55 AM PDT (10/31)
Length of Visible Light 11h 00m
Length of Day
9h 55m
Waning Gibbous, 97% of the Moon is Illuminated
Oct 31
Waning Gibbous
Nov 6
Last Quarter
Nov 13
New
Nov 20
First Quarter
Nov 28
Full

Hourly Weather History & Observations

Time (PDT) Temp. Dew Point Humidity Pressure Visibility Wind Dir Wind Speed Gust Speed Precip Events Conditions
12:00 AM 49.1 °F 48.2 °F 97% 29.70 in - North - - N/A   Unknown
1:00 AM 49.3 °F 48.4 °F 97% 29.70 in - North - - N/A   Unknown
2:00 AM 48.9 °F 48.0 °F 97% 29.70 in - North - - N/A   Unknown
3:00 AM 49.8 °F 48.9 °F 97% 29.69 in - North - - N/A   Unknown
4:00 AM 50.4 °F 49.5 °F 97% 29.67 in - North - - N/A   Unknown
5:00 AM 49 °F 49 °F 98% 29.67 in - Calm Calm - -  
5:00 AM 49.5 °F 48.6 °F 97% 29.67 in - North - - N/A   Unknown
6:00 AM 49.1 °F 48.2 °F 97% 29.65 in - North - - N/A   Unknown
7:00 AM 48.6 °F 47.7 °F 97% 29.63 in - North - - N/A   Unknown
8:00 AM 48.6 °F 47.7 °F 97% 29.62 in - North - - N/A   Unknown
9:00 AM 48.7 °F 47.8 °F 97% 29.61 in - North - - N/A   Unknown
10:00 AM 49.1 °F 48.2 °F 97% 29.60 in - North - - N/A   Unknown
11:00 AM 49 °F 48 °F 96% 29.58 in - Calm Calm - -  
11:00 AM 49.1 °F 48.2 °F 97% 29.58 in - North - - N/A   Unknown
12:00 PM 48.9 °F 48.0 °F 97% 29.57 in - North - - N/A   Unknown
1:00 PM 50.2 °F 49.3 °F 97% 29.55 in - North - - N/A   Unknown
2:00 PM 50.5 °F 49.6 °F 97% 29.53 in - North - - N/A   Unknown
3:00 PM 50.9 °F 50.0 °F 97% 29.53 in - North - - N/A   Unknown
4:00 PM 50.7 °F 49.8 °F 97% 29.55 in - North - - N/A   Unknown
5:00 PM 51 °F 50 °F 93% 29.56 in - Calm Calm - -  
5:00 PM 50.5 °F 49.6 °F 97% 29.56 in - North - - N/A   Unknown
6:00 PM 51.4 °F 50.5 °F 97% 29.58 in - North - - N/A   Unknown
7:00 PM 50.2 °F 48.7 °F 95% 29.61 in - North - - N/A   Unknown
8:00 PM 49.8 °F 48.7 °F 96% 29.62 in - North - - N/A   Unknown
9:00 PM 48.4 °F 47.1 °F 95% 29.63 in - North - - N/A   Unknown
10:00 PM 49.5 °F 48.4 °F 96% 29.65 in - North - - N/A   Unknown
11:00 PM 49 °F 48 °F 96% 29.66 in - Calm Calm - -  
11:00 PM 49.3 °F 48.2 °F 96% 29.66 in - North - - N/A   Unknown